User: anonymous   Login
Location: Unspecified
(0.0000°N, 0.0000°E)
Time: 05:42:24
(UTC+00:00)
Language:

FORTE - Orbit

View from above orbital plane
View from above orbital plane
View from above satellite
View from above satellite

Ground track
Ground track

The orbit data is extracted from the following two-line orbital elements,

1 24920U 97047A   22225.67572394  .00000088  00000-0  60230-4 0  9991
2 24920  69.9543 300.5068 0021525  22.8747 337.3328 14.26557156298428
Epoch (UTC): 13 August 2022 16:13:02
Eccentricity: 0.0021525
inclination: 69.9543°
perigee height: 788 km
apogee height: 819 km
right ascension of ascending node: 300.5068°
argument of perigee: 22.8747°
revolutions per day: 14.26557156
mean anomaly at epoch: 337.3328°
orbit number at epoch: 29842

The dashed part of the orbit path shows where the satellite is in the earth's shadow,  

DLR